ARIANE 44LP R/B, 19689

Orbit data source: Space-Track

ARIANE 44LP R/B, 19689 is space debris in HEO originally from a launch on Sun, 11 Dec 1988 UTC launched from the French Guiana (FRGUI). Debris objects in space refer to the collection of defunct objects orbiting the Earth. Examples of debris include non-operational satellites, rocket bodies, and fragments generated from explosions, collisions, or faulty payload assembly.

Loading next visibility...
Identifier
19689, 1988-109C
Orbit
HEO
Last TLE update
18 hours ago
Origin
Manufacturer
Ae/LesM
Mission
Spacecraft
Bus & Motor
ARIANE H10, Unknown motor
Mass
2,260 kg wet, 2,080 kg dry
Launch date (UTC)
1988-12-11 (37 years ago)
Launch vehicle
Unknown
Launch site
French Guiana (FRGUI)
Object type
Payload
Rocket body
Debris
Shape & HBR
Cyl, 14.1 m
Radar Cross Section
31.447 m², Large (>1 m²)

Expand to show TLE details & history

TLE from 18 hours ago
0 ARIANE 44LP R/B
1 19689U 88109C   25183.76122550  .00000261  00000-0  16526-2 0  9997
2 19689   7.2728  27.6583 7181210 112.4603 333.9295  2.30022414270077
Epoch: 2025-07-02T18:16Z
TLE epoch observation values (Epoch: 2025-07-02T18:16:09.883Z)
Latitude
-0.00002°
Longitude
-167.47945°
Altitude
9,786.067 km
Speed
5.733 km/s
True Right ascension
01h 50m 23s
True Declination
0° 00' 00"
Sunlit
Object was in daylight at epoch
Visualization orbit readout
Latitude
-5.78169°
Longitude
139.86534°
Altitude
32,187.146 km
Speed
2.056 km/s
Apparent Right ascension
22h 04m 48s
Apparent Declination
-13° 08' 03"
Sunlit
Object is in daylight
Visualization observer readout
Local Sidereal Time
00:07:47
Azimuth
214.989° SW
Elevation
29.744°
Doppler factor
1
Orbital elements
Apogee altitude
35,280.335 km
Perigee altitude
456.451 km
Semi-major axis
24,246.53 km
Eccentricity
0.71812
Inclination
7.2728°
RAAN
27.6583°
Arg. of periapsis
112.4603°
True anomaly
Unknown
Mean anomaly
333.9295°
Eccentric anomaly
Unknown
Mean motion
0.57487 °/min
Orbital period
626.23 mins
BSTAR
0.0016526
Loading maneuver chart data...
Loading SW <> Apogee altitude chart data...
Loading historical data...
Loading historical data...
Loading historical data...
Loading historical data...
Loading historical data...
Loading historical data...
Loading historical data...

ARIANE 44LP R/B Visibility forecast

Observer location: undefined°, undefined°

Span
Click to sort rows by Start time (UTC) header in descending order
Start Az.
Max El. time (UTC)
Max El. Az.
Max El.
End time (UTC)
End Az.
194 mins2025-07-03 12:21:08.800Z214.978° SW2025-07-03 12:21:08.800Z214.978° SW26.378°2025-07-03 15:35:08.800Z150.564° SSE
569 mins2025-07-04 02:41:08.800Z175.034° S2025-07-04 10:17:08.800Z159.154° S29.291°2025-07-04 12:10:08.800Z127.829° SE
|